Regional Weather Roundup
Issued by NWS

Home | Current Version | Previous Version | Graphics & Text | Print | Product List | Glossary Off
Versions: 1 2 3 4 5 6 7 8 9 10 11 12 13 14 15 16 17 18 19 20 21 22 23 24 25 26 27 28 29 30 31 32 33 34 35 36 37 38 39 40 41 42 43 44 45 46 47 48 49 50

000
ASUS43 KTOP 020559
RWRKS

WEATHER ROUNDUP FOR KANSAS
NATIONAL WEATHER SERVICE GOODLAND KS
100 AM CDT THU JUL 02 2015

NOTE:  "FAIR" INDICATES FEW OR NO CLOUDS BELOW 12,000 FEET WITH NO
SIGNIFICANT WEATHER AND/OR OBSTRUCTIONS TO VISIBILITY.

KSZ001>006-013>018-027>032-041>047-020700-
NORTHWEST KANSAS

CITY           SKY/WX    TMP DP  RH WIND       PRES   REMARKS
GOODLAND       CLOUDY    68  61  78 W6        30.04F
6HR MIN TEMP:  68; 6HR MAX TEMP:  92; 6HR PCP:  0.16;

HAYS           MOCLDY    75  63  64 NE7       29.90S
HILL CITY      MOCLDY    75  62  64 CALM      29.92F
6HR MIN TEMP:  74; 6HR MAX TEMP:  97;

RUSSELL        MOCLDY    75  68  78 NE8       29.87F
6HR MIN TEMP:  75; 6HR MAX TEMP:  97;

$$

KSZ061>065-074>080-084>089-020700-
SOUTHWEST KANSAS

CITY           SKY/WX    TMP DP  RH WIND       PRES   REMARKS
DODGE CITY     MOCLDY    76  57  51 SE6       29.93F
6HR MIN TEMP:  74; 6HR MAX TEMP:  94;

ELKHART          N/A     74  54  49 N17         N/A
GARDEN CITY    MOCLDY    77  57  50 E5        29.95F
6HR MIN TEMP:  75; 6HR MAX TEMP:  95;

GREAT BEND     CLOUDY    75  64  69 NE3       29.89S
LIBERAL        MOCLDY    81  57  44 E10       29.97S
$$

KSZ066>073-081>083-090>101-020700-
SOUTHEAST KANSAS

CITY           SKY/WX    TMP DP  RH WIND       PRES   REMARKS
CHANUTE        PTCLDY    81  71  71 W8        29.81R
6HR MIN TEMP:  81; 6HR MAX TEMP:  88;

COFFEYVILLE    CLEAR     82  71  69 S13       29.81R
6HR MIN TEMP:  82; 6HR MAX TEMP:  88;

HUTCHINSON     PTCLDY    78  67  68 N8        29.84F
6HR MIN TEMP:  78; 6HR MAX TEMP:  96;

MEDICINE LODGE   N/A     73  62  68 N3        29.86F
NEWTON         PTCLDY    73  64  73 NE7       29.86S
PARSONS        CLEAR     81  72  74 S8        29.82R
6HR MIN TEMP:  81; 6HR MAX TEMP:  87;

WICHITA INTL   MOCLDY    79  66  64 NW8       29.81F
6HR MIN TEMP:  76; 6HR MAX TEMP:  98;

WICHITA JABRA  CLEAR     76  70  82 NW7       29.81F
6HR MIN TEMP:  76; 6HR MAX TEMP:  96;

WINFIELD       PTCLDY    82  68  62 SW10      29.81S
6HR MIN TEMP:  79; 6HR MAX TEMP:  95; 6HR PCP: TRACE;

$$

KSZ007>012-019>026-033>040-048>060-102>105-020700-
NORTHEAST KANSAS

CITY           SKY/WX    TMP DP  RH WIND       PRES   REMARKS
CONCORDIA      MOCLDY    74  70  87 NE3       29.87F
6HR MIN TEMP:  74; 6HR MAX TEMP:  90;

EMPORIA        MOCLDY    77  74  90 NE14      29.83R
6HR MIN TEMP:  77; 6HR MAX TEMP:  91;

LAWRENCE       CLOUDY    77  72  84 E10G18    29.85R
6HR MIN TEMP:  77; 6HR MAX TEMP:  87;

MANHATTAN      MOCLDY    77  73  87 NE8       29.84R
6HR MIN TEMP:  77; 6HR MAX TEMP:  93;

OLATHE IND     MOCLDY    73  66  78 NE9       29.86R
6HR MIN TEMP:  73; 6HR MAX TEMP:  87;

OLATHE EXE     MOCLDY    72  65  78 E9        29.85R
6HR MIN TEMP:  72; 6HR MAX TEMP:  85;

SALINA         PTCLDY    80  71  74 NE8       29.84F
6HR MIN TEMP:  80; 6HR MAX TEMP:  96;

TOPEKA BILLARD CLOUDY    78  74  87 NE9       29.85R
6HR MIN TEMP:  77; 6HR MAX TEMP:  91;

TOPEKA FORBES  MOCLDY    79  73  82 E10       29.85R
6HR MIN TEMP:  78; 6HR MAX TEMP:  92;

$$



USA.gov is the U.S. government's official web portal to all federal, state and local government web resources and services.